Home > Weather > Leawood > Past weeks

Flag for USA Past Weather in Leawood, Kansas, USA — Yesterday and Last 2 Weeks

Now
70 °F

Light rain. Fog.


Feels Like: 67 °F
Forecast: 70 / 83 °F
Wind: 5 mph from North

Location: Johnson County Executive Airport

Current Time: Jul 29, 2016 at 1:04:41 AM

Latest Report: Jul 28, 2016 at 11:53 PM


Visibility: 6 mi

Pressure: 29.97 "Hg

Humidity: 90%

Dew Point: 67 °F

Location of LeawoodLocation

Past Weather in Leawood — Graph

°F

Leawood Temperature Yesterday

Maximum temperature yesterday: 91 °F (at 3:53 PM)
Minimum temperature yesterday: 70 °F (at 11:53 PM)
Average temperature yesterday: 81 °F

High & Low Weather Summary for the Past Weeks

 TemperatureHumidityPressure
High94 °F (Jul 21, 2:53 PM)100% (Jul 14, 3:53 AM)30.18 "Hg (Jul 14, 3:53 AM)
Low66 °F (Jul 15, 2:53 AM)40% (Jul 27, 2:53 PM)29.83 "Hg (Jul 23, 7:53 PM)
Average81 °F73%29.99 "Hg
* Reported Jul 13 11:53 PM — Jul 28 11:53 PM, Leawood, Weather by CustomWeather, © 2016

Note: Actual official high and low records may vary slightly from our data, if they occured in-between our weather recording intervals... More about our weather records

Advertising

Leawood Weather History for the Previous 24 Hours

Scroll right to see more
 ConditionsComfort  
Time TempWeatherWind HumidityBarometerVisibility
11:53 PM
Thu, Jul 28
70 °FLight rain. Fog.5 mph90%29.97 "Hg6 mi
10:53 PM79 °FPassing clouds.3 mph65%29.95 "Hg10 mi
9:53 PM80 °FPassing clouds.5 mph62%29.95 "Hg10 mi
8:53 PM81 °FPassing clouds.7 mph62%29.91 "Hg10 mi
7:53 PM84 °FSunny.7 mph55%29.88 "Hg10 mi
6:53 PM88 °FSunny.9 mph48%29.88 "Hg10 mi
5:53 PM88 °FScattered clouds.7 mph46%29.88 "Hg10 mi
4:53 PM90 °FScattered clouds.10 mph45%29.88 "Hg10 mi
3:53 PM91 °FScattered clouds.10 mph42%29.90 "Hg10 mi
2:53 PM90 °FPassing clouds.10 mph42%29.91 "Hg10 mi
1:53 PM90 °FPassing clouds.8 mph41%29.92 "Hg10 mi
12:53 PM88 °FSunny.10 mph43%29.93 "Hg10 mi
11:53 AM87 °FPassing clouds.6 mph53%29.93 "Hg10 mi
10:53 AM84 °FScattered clouds.10 mph61%29.93 "Hg10 mi
9:53 AM80 °FSunny.6 mph74%29.94 "Hg10 mi
8:53 AM78 °FSunny.7 mph79%29.95 "Hg10 mi
7:53 AM74 °FSunny.5 mph91%29.94 "Hg10 mi
6:53 AM73 °FPassing clouds.6 mph90%29.93 "Hg10 mi
5:53 AM73 °FPassing clouds.3 mph90%29.91 "Hg10 mi
4:53 AM74 °FPassing clouds.No wind88%29.89 "Hg10 mi
3:53 AM75 °FPassing clouds.3 mph85%29.90 "Hg10 mi
2:53 AM74 °FPassing clouds.No wind91%29.90 "Hg10 mi
1:53 AM73 °FClear.No wind94%29.91 "Hg10 mi
Weather by CustomWeather, © 2016

See weather overviewHow to use our weather pages